User: anonymous   Login
Location: The Jewett Observatory
(46.7288°N, 117.1525°W)
Time: 23:21:30
(UTC-07:00)
Language:

Cosmos 1633 - Orbit

View from above orbital plane
View from above orbital plane
View from above satellite
View from above satellite

Ground track
Ground track

The orbit data is extracted from the following two-line orbital elements,

1 15592U 85020A   15115.21914612  .00008784  00000-0  36637-3 0  9991
2 15592 082.5422 022.3430 0017402 064.0460 095.1506 15.23393761644702
Epoch (UTC): 25 April 2015 05:15:34
Eccentricity: 0.0017402
inclination: 82.5422°
perigee height: 483 km
apogee height: 507 km
right ascension of ascending node: 22.3430°
argument of perigee: 64.0460°
revolutions per day: 15.23393761
mean anomaly at epoch: 95.1506°
orbit number at epoch: 64470

The dashed part of the orbit path shows where the satellite is in the earth's shadow,  

DLR